Wind_Speed
6 4 4 4 3 2 2 4 5 5 5 6 6 7 6 6 6 6 7 7 7 8 9 9 9 9 9 8 8 8 8 8 8 8 9 9 8 8 8 8 8 8 8 8
7 7 6 5 4 3 4 4 5 5 5 6 6 7 7 6 7 8 7 6 8 8 9 9 10 10 10 9 9 8 8 9 9 9 9 10 10 9 9 8 9 9 9 9
9 9 8 6 5 5 5 5 5 6 5 6 6 7 8 8 8 8 8 8 9 9 10 10 10 11 11 10 10 9 9 9 10 10 10 11 11 10 10 10 10 9 10 10
10 11 9 8 7 6 6 6 6 6 6 7 6 7 9 8 8 9 10 10 10 10 10 10 10 10 11 10 10 10 9 9 10 12 12 12 12 11 10 10 10 10 11 11
11 11 10 9 9 8 7 7 7 8 8 8 8 7 9 9 9 10 10 11 11 10 10 10 10 10 10 10 10 10 10 11 12 12 12 12 12 12 12 11 11 11 11 11
13 12 11 11 10 9 8 8 7 7 8 7 8 8 9 11 10 10 10 11 10 10 10 10 10 10 10 11 11 11 12 12 12 13 13 13 13 13 12 12 12 12 12 12
13 13 12 11 11 10 9 8 8 8 8 8 9 8 10 10 10 10 10 11 10 10 10 10 11 11 11 11 12 12 13 13 13 14 14 13 14 13 13 13 13 13 13 13
13 13 13 12 11 11 10 9 9 9 9 9 10 10 11 10 11 11 11 10 10 10 11 11 11 11 11 12 12 13 13 14 14 14 14 13 14 14 14 13 13 13 13 13
13 14 14 13 12 12 12 11 10 10 10 10 11 12 12 11 11 11 11 10 10 11 11 11 12 11 12 12 13 14 14 15 15 14 14 14 14 14 14 14 14 13 13 13
15 15 15 14 14 14 13 13 12 11 11 11 12 12 13 12 12 13 12 12 12 12 12 12 12 12 13 13 14 15 16 16 15 15 15 15 15 15 15 15 15 15 15 14
16 16 16 15 15 15 14 14 14 13 13 12 12 13 14 13 13 13 13 14 14 13 13 13 14 14 14 14 15 15 16 16 16 16 16 16 16 16 16 16 16 16 16 16
17 16 16 16 16 16 15 14 14 14 14 14 13 15 15 14 14 14 14 14 14 13 13 14 16 16 15 15 16 16 16 16 17 17 17 17 17 17 17 17 17 17 17 17
19 18 16 16 17 18 17 16 16 15 15 16 14 16 16 16 15 15 15 15 15 15 15 16 17 17 16 16 16 17 17 17 18 19 19 18 18 17 18 17 18 18 18 19
19 19 19 18 18 19 19 17 17 16 17 17 17 16 17 16 16 16 16 16 17 17 18 18 18 18 17 17 17 18 18 19 19 20 19 19 18 18 18 18 19 19 19 20
20 20 20 20 20 20 19 19 18 18 18 18 17 17 17 17 17 17 17 18 18 18 18 19 20 19 19 19 19 20 20 20 21 20 20 20 20 20 20 20 20 20 21 21
20 20 20 20 20 20 20 20 19 19 18 18 18 19 19 20 20 19 19 18 19 19 19 20 21 21 21 21 21 21 21 21 21 20 20 21 21 21 21 21 21 22 22 22
21 20 19 19 20 20 20 19 20 20 19 20 20 20 21 21 20 20 20 20 20 20 20 21 22 22 22 22 22 22 22 22 22 22 22 22 22 22 22 22 23 24 24 23
21 21 20 19 20 20 20 20 20 20 20 20 21 21 21 21 21 21 20 20 21 21 21 22 23 22 23 23 23 22 22 22 22 22 22 23 23 23 24 24 24 25 24 24
22 21 21 20 20 20 20 20 20 21 20 20 21 21 21 21 21 20 20 20 21 21 22 23 23 22 22 22 23 23 23 23 23 23 24 25 25 25 25 25 25 25 24 24
22 22 22 21 21 20 21 20 20 21 21 20 21 21 21 20 20 20 20 20 20 21 22 22 22 21 21 22 23 23 24 24 24 25 26 26 27 27 26 26 25 25 25 25
23 22 22 22 22 21 22 21 21 22 21 21 22 22 21 21 21 21 21 21 21 21 22 22 22 22 22 23 23 24 25 25 25 26 26 26 27 27 26 26 26 26 26 26
24 24 23 23 23 23 23 22 22 23 22 22 22 22 22 22 21 22 22 22 22 22 22 22 22 23 23 24 24 24 25 25 25 25 26 27 27 27 26 27 27 27 26 25
26 25 25 24 24 24 23 23 23 24 23 23 22 22 22 23 22 22 23 23 24 23 23 23 23 23 24 24 25 25 25 25 25 26 26 26 26 26 26 27 26 26 26 25
26 26 27 26 25 24 24 24 24 24 24 23 23 23 23 24 23 24 24 24 24 24 24 24 24 24 24 24 25 25 25 25 26 27 27 27 27 26 26 26 26 26 26 26
27 27 27 27 26 25 25 25 24 24 24 24 24 24 25 25 24 24 24 24 24 24 24 25 25 25 24 25 25 25 26 26 27 27 27 27 27 27 26 26 26 26 26 27
27 27 27 28 27 26 25 25 24 24 24 24 24 25 25 25 25 24 24 25 25 24 24 25 25 25 25 25 26 26 27 26 27 27 27 27 27 27 27 27 27 27 27 27
Wind_Direction
210 216 228 238 249 266 303 328 323 323 332 342 344 352 351 349 351 345 343 346 342 343 345 346 345 343 344 341 339 341 341 338 336 334 330 325 323 320 315 309 307 303 300 295
218 224 231 239 251 271 294 315 315 319 327 331 334 343 346 341 340 341 342 343 341 335 334 336 339 339 338 342 338 337 339 336 331 328 329 326 322 318 315 310 306 303 301 297
218 229 233 241 256 271 282 295 304 307 316 322 326 337 337 336 334 330 332 331 329 324 326 330 332 333 334 339 337 335 334 333 327 322 321 322 323 321 317 312 307 301 297 295
224 231 234 242 255 261 274 282 295 301 312 312 309 317 320 320 321 325 327 327 324 321 320 325 327 328 329 331 330 332 329 328 328 326 323 321 322 321 318 314 309 303 298 296
231 235 238 243 250 256 268 280 290 295 304 305 302 308 310 313 312 316 321 321 322 319 319 322 324 325 326 328 328 326 324 326 326 326 327 323 320 318 315 311 308 305 302 296
232 237 238 241 249 259 268 276 291 302 307 304 297 303 302 307 310 310 315 319 317 319 318 317 319 322 325 326 327 325 323 322 322 321 321 320 319 318 315 313 308 305 300 295
238 240 241 244 252 262 270 281 296 302 297 293 293 297 294 302 304 307 314 319 316 315 319 318 319 320 320 321 322 324 326 325 323 321 318 318 317 318 317 314 309 305 302 298
240 245 245 244 246 255 265 269 274 281 284 291 296 294 294 300 302 305 312 316 316 315 315 319 321 319 319 320 320 322 325 325 325 322 318 318 319 318 317 318 317 311 307 305
237 244 246 243 246 254 262 267 268 275 286 295 291 292 292 298 301 303 308 313 313 313 313 314 315 316 319 320 319 320 321 322 324 322 319 318 320 320 319 319 317 313 308 306
236 243 249 249 249 253 257 264 269 273 280 284 290 292 290 292 294 298 302 306 310 310 309 310 312 313 316 316 316 316 317 318 319 318 317 315 316 317 317 315 314 312 308 304
238 243 250 253 252 256 261 263 265 268 271 275 282 283 286 288 290 293 295 298 302 305 306 309 310 312 313 314 314 313 314 316 317 316 315 314 315 316 315 314 313 310 307 303
239 243 247 254 256 256 258 259 264 268 274 278 279 282 284 285 287 288 290 292 295 299 301 304 307 309 310 311 312 311 310 313 315 315 314 314 314 313 314 313 312 309 306 302
240 243 248 255 260 261 260 259 262 267 272 277 279 280 283 281 284 287 289 290 291 296 298 301 305 307 307 307 309 309 308 310 312 312 312 312 312 311 312 313 313 311 308 304
240 243 246 249 254 262 265 265 265 266 270 275 276 275 279 280 283 286 286 287 289 293 297 299 301 302 302 303 307 310 308 307 309 309 309 310 310 310 312 311 311 310 308 306
241 244 247 249 253 258 261 264 269 268 268 270 273 275 278 281 281 282 283 283 285 288 293 295 298 298 299 301 304 306 306 305 307 308 306 306 307 309 310 310 310 308 307 305
243 248 251 253 254 257 261 263 267 268 269 271 272 273 277 281 282 282 281 280 282 285 289 291 293 294 295 297 298 301 303 304 305 306 305 304 305 308 310 310 310 309 308 306
246 249 251 255 257 258 260 262 265 269 272 272 274 276 277 281 284 283 281 280 280 282 285 289 290 291 292 292 293 295 299 300 301 304 304 306 304 306 307 308 309 310 309 306
247 251 254 256 258 258 262 264 265 267 270 271 273 273 276 280 283 284 282 281 281 282 285 287 288 287 289 290 290 291 295 297 299 301 302 303 303 304 305 305 305 306 306 305
246 250 253 254 259 264 265 265 266 267 269 271 273 275 276 281 283 282 282 282 283 283 285 285 286 288 290 289 289 290 292 294 297 299 300 301 301 301 302 302 302 303 304 304
245 248 252 254 256 261 266 268 268 269 271 273 273 275 277 279 280 280 281 280 281 285 288 285 285 288 289 288 288 289 291 292 295 297 298 299 300 300 300 300 300 302 303 305
246 248 251 255 257 261 264 268 270 269 271 274 274 274 277 278 277 279 279 279 282 284 288 287 286 288 289 288 288 289 291 293 294 296 298 299 300 300 300 301 301 303 303 303
246 250 252 254 257 261 265 267 268 268 271 275 275 276 277 277 277 278 279 279 281 284 286 286 286 287 288 289 289 290 291 293 295 297 299 300 301 301 301 300 300 301 301 301
247 249 252 255 259 262 265 267 269 270 272 275 277 277 275 275 276 277 278 280 282 283 285 286 287 288 290 291 291 291 292 293 295 297 299 300 301 301 300 299 299 300 302 302
249 249 253 257 260 262 265 268 270 271 273 274 276 275 273 274 275 276 277 279 280 281 282 285 287 288 291 293 292 291 293 295 297 298 299 300 300 300 301 302 301 301 302 304
249 251 253 256 259 263 265 269 271 273 274 274 275 274 272 272 273 275 277 278 280 280 280 283 286 287 289 291 292 296 298 297 298 300 301 301 303 302 301 303 304 303 303 304
250 252 252 255 259 263 266 268 269 271 272 273 274 273 273 273 274 275 276 277 278 279 278 281 284 286 289 292 295 297 298 298 298 299 300 301 302 303 302 302 303 304 304 304
Height
5925 5927 5927 5927 5928 5928 5928 5928 5927 5926 5925 5923 5922 5921 5919 5918 5916 5915 5913 5912 5910 5909 5907 5905 5904 5902 5900 5898 5896 5894 5892 5890 5889 5887 5886 5884 5883 5881 5880 5878 5877 5876 5875 5874
5925 5926 5926 5926 5926 5927 5927 5927 5926 5925 5924 5923 5922 5921 5919 5917 5916 5914 5913 5911 5910 5908 5907 5905 5903 5901 5899 5896 5894 5893 5891 5889 5888 5886 5884 5883 5881 5879 5878 5877 5875 5874 5873 5872
5923 5925 5924 5925 5925 5926 5926 5926 5925 5924 5924 5923 5922 5921 5919 5917 5915 5914 5912 5910 5909 5907 5906 5904 5902 5900 5898 5895 5893 5892 5890 5889 5887 5885 5883 5881 5879 5878 5876 5875 5873 5872 5871 5870
5921 5921 5922 5923 5924 5924 5925 5924 5924 5923 5923 5922 5922 5922 5919 5916 5915 5913 5911 5909 5908 5906 5904 5903 5901 5899 5897 5895 5892 5891 5889 5888 5886 5883 5881 5879 5878 5876 5874 5872 5871 5870 5868 5867
5919 5919 5920 5922 5922 5922 5922 5922 5922 5922 5921 5922 5921 5920 5919 5915 5914 5912 5910 5908 5906 5905 5903 5901 5900 5898 5895 5893 5892 5890 5888 5886 5884 5882 5880 5878 5876 5874 5872 5870 5868 5867 5866 5864
5916 5917 5918 5919 5919 5920 5920 5920 5920 5920 5920 5921 5919 5919 5918 5914 5912 5911 5909 5907 5905 5903 5901 5900 5898 5896 5894 5892 5890 5888 5887 5885 5883 5880 5878 5876 5874 5872 5870 5868 5866 5865 5863 5862
5914 5915 5915 5916 5917 5917 5918 5920 5921 5921 5921 5920 5917 5916 5915 5912 5911 5909 5907 5905 5903 5902 5900 5898 5896 5894 5892 5891 5889 5887 5885 5883 5880 5878 5876 5874 5872 5870 5868 5866 5864 5862 5861 5859
5912 5913 5913 5913 5915 5915 5915 5917 5919 5919 5919 5918 5915 5913 5912 5910 5908 5907 5905 5903 5902 5900 5898 5897 5895 5893 5891 5889 5887 5885 5883 5881 5878 5876 5874 5871 5869 5867 5865 5863 5861 5859 5857 5856
5910 5911 5910 5910 5911 5912 5913 5913 5915 5915 5915 5915 5913 5911 5909 5907 5906 5905 5903 5901 5900 5898 5896 5895 5893 5891 5889 5887 5885 5882 5880 5878 5876 5874 5872 5869 5867 5865 5863 5860 5858 5856 5854 5853
5905 5907 5907 5907 5908 5909 5910 5910 5911 5912 5912 5912 5912 5909 5908 5905 5903 5902 5901 5899 5898 5896 5895 5893 5891 5889 5886 5884 5882 5880 5878 5876 5874 5871 5869 5867 5865 5862 5860 5858 5855 5853 5851 5850
5901 5903 5904 5904 5905 5906 5906 5907 5907 5908 5908 5909 5909 5909 5904 5902 5901 5899 5898 5897 5895 5894 5892 5890 5888 5886 5884 5882 5880 5877 5875 5873 5871 5869 5866 5864 5862 5859 5857 5855 5852 5850 5848 5846
5897 5900 5901 5901 5901 5901 5902 5903 5904 5905 5904 5904 5904 5906 5900 5899 5897 5896 5895 5894 5892 5891 5889 5887 5885 5883 5881 5878 5876 5874 5872 5870 5868 5866 5863 5861 5859 5856 5854 5851 5849 5846 5844 5842
5893 5895 5897 5898 5899 5898 5898 5898 5899 5900 5900 5900 5901 5902 5897 5895 5894 5893 5891 5890 5889 5887 5886 5884 5881 5879 5877 5875 5873 5871 5869 5867 5865 5862 5860 5858 5855 5853 5850 5848 5845 5843 5840 5838
5888 5891 5893 5895 5895 5894 5894 5894 5894 5895 5896 5896 5895 5895 5893 5891 5890 5888 5887 5886 5885 5883 5882 5880 5878 5876 5874 5872 5870 5868 5866 5863 5861 5859 5856 5854 5852 5849 5847 5844 5842 5839 5837 5834
5883 5885 5886 5887 5888 5889 5889 5890 5890 5890 5890 5891 5890 5889 5888 5887 5885 5884 5883 5882 5880 5879 5877 5876 5873 5871 5870 5868 5866 5864 5862 5859 5857 5855 5852 5850 5848 5846 5843 5841 5838 5835 5832 5830
5878 5880 5881 5882 5883 5883 5884 5885 5885 5885 5885 5884 5884 5884 5883 5881 5880 5879 5878 5877 5876 5874 5873 5871 5869 5867 5865 5863 5861 5859 5857 5855 5853 5850 5848 5846 5844 5841 5839 5836 5833 5830 5827 5825
5872 5874 5876 5877 5878 5878 5879 5879 5879 5879 5879 5879 5879 5879 5877 5876 5875 5874 5872 5871 5870 5869 5868 5866 5864 5862 5860 5858 5857 5855 5853 5850 5848 5846 5844 5841 5839 5836 5834 5831 5828 5825 5822 5819
5867 5869 5870 5872 5873 5873 5876 5874 5874 5874 5873 5873 5873 5872 5871 5871 5869 5868 5867 5866 5865 5864 5862 5860 5858 5857 5855 5853 5851 5849 5847 5845 5843 5841 5838 5836 5833 5831 5828 5826 5823 5820 5817 5814
5861 5863 5865 5866 5867 5868 5869 5868 5868 5868 5868 5868 5867 5866 5865 5864 5863 5862 5861 5860 5859 5858 5856 5855 5853 5851 5849 5847 5845 5844 5842 5840 5837 5835 5833 5830 5827 5825 5822 5819 5817 5814 5811 5808
5856 5857 5859 5860 5861 5863 5864 5862 5862 5863 5862 5862 5861 5860 5859 5859 5858 5857 5855 5854 5853 5852 5850 5849 5847 5845 5843 5841 5839 5838 5836 5834 5831 5829 5827 5824 5821 5818 5815 5813 5810 5807 5804 5801
5850 5851 5852 5854 5855 5856 5856 5856 5856 5858 5857 5856 5855 5854 5853 5852 5852 5851 5850 5848 5847 5846 5844 5843 5841 5839 5837 5835 5833 5831 5830 5827 5825 5823 5820 5817 5814 5811 5809 5806 5803 5800 5797 5794
5843 5845 5846 5848 5849 5851 5849 5849 5850 5850 5849 5848 5848 5847 5847 5846 5845 5844 5843 5842 5841 5840 5838 5836 5835 5833 5831 5829 5827 5825 5823 5821 5818 5816 5813 5811 5808 5805 5802 5800 5797 5794 5791 5787
5836 5839 5839 5841 5843 5843 5842 5842 5842 5842 5842 5842 5841 5840 5840 5839 5838 5838 5837 5836 5834 5833 5831 5830 5828 5827 5825 5823 5821 5819 5817 5815 5812 5810 5807 5804 5801 5798 5795 5792 5789 5787 5783 5780
5829 5831 5832 5833 5834 5835 5835 5835 5835 5835 5835 5835 5834 5833 5832 5832 5831 5831 5830 5829 5827 5826 5825 5823 5822 5820 5819 5817 5815 5813 5810 5808 5806 5803 5800 5797 5794 5791 5788 5785 5782 5779 5776 5773
5822 5823 5825 5826 5827 5828 5828 5828 5828 5828 5828 5827 5827 5826 5825 5824 5824 5823 5822 5821 5820 5819 5818 5816 5815 5814 5812 5810 5808 5806 5804 5801 5799 5796 5793 5790 5787 5784 5781 5778 5775 5772 5769 5766
5814 5816 5817 5818 5820 5821 5821 5821 5821 5820 5820 5820 5819 5818 5818 5817 5816 5816 5815 5814 5813 5812 5810 5809 5808 5807 5805 5803 5801 5799 5796 5794 5791 5789 5786 5783 5780 5777 5774 5771 5768 5765 5762 5759